Weather History for KBVN - April, 2014

Change the Weather History Date:

Saturday, April 5, 2014

  Actual Average (KOFK) Record (KOFK)
Temperature  
Mean Temperature 46 °F 45 °F  
Max Temperature 64 °F 58 °F 89 °F (1991)
Min Temperature 27 °F 33 °F 11 °F (1945)
Degree Days  
Heating Degree Days 20 20  
Month to date heating degree days 102  
Since 1 July heating degree days 6051  
Cooling Degree Days 0 0  
Month to date cooling degree days 0  
Year to date cooling degree days 0  
Moisture  
Dew Point 28 °F    
Average Humidity 59    
Maximum Humidity 88    
Minimum Humidity 24    
Precipitation  
Precipitation 0.00 in 0.08 in 1.73 in (1999)
Month to date precipitation 0.37  
Year to date precipitation 3.49  
Snow  
Snow 0.00 in 0.20 in - ()
Month to date snowfall 0.7  
Since 1 July snowfall 28.6  
Snow Depth -    
Sea Level Pressure  
Sea Level Pressure 29.97 in    
Wind  
Wind Speed 9 mph (SSE)    
Max Wind Speed 25 mph    
Max Gust Speed 38 mph    
Visibility 9 miles    
Events      
T = Trace of Precipitation, MM = Missing Value Source: NWS Daily Summary

Daily Weather History Graph

Daily Weather History Graph

Search for Another Location

Airport or City:

Trip Planner

Search our weather history database for the weather conditions in past years. The results will help you decide how hot, cold, wet, or windy it might be!

Date:

Astronomy

Apr. 05, 2014 Rise Set
Actual Time 7:08 AM CDT 8:02 PM CDT
Civil Twilight 6:40 AM CDT 8:30 PM CDT
Nautical Twilight 6:06 AM CDT 9:04 PM CDT
Astronomical Twilight 5:31 AM CDT 9:39 PM CDT
Moon 11:14 AM CDT (4/5) 1:16 AM CDT (4/5)
Length of Visible Light 13h 50m
Length of Day
12h 53m
Waxing Crescent, 34% of the Moon is Illuminated
Apr 5
Waxing Crescent
Apr 7
First Quarter
Apr 15
Full
Apr 22
Last Quarter
Apr 29
New

Hourly Weather History & Observations

Time (CDT) Temp. Windchill Dew Point Humidity Pressure Visibility Wind Dir Wind Speed Gust Speed Precip Events Conditions
12:15 AM 29.3 °F - 26.2 °F 88% 30.08 in 7.0 mi Calm Calm - N/A   Clear
12:35 AM 29.8 °F 26.3 °F 25.7 °F 85% 30.08 in 7.0 mi SSE 3.5 mph - N/A   Clear
12:55 AM 28.8 °F 25.0 °F 25.2 °F 86% 30.07 in 7.0 mi SE 3.5 mph - N/A   Scattered Clouds
1:15 AM 31.1 °F 25.4 °F 26.1 °F 82% 30.07 in 10.0 mi SE 5.8 mph - N/A   Clear
1:35 AM 29.3 °F 24.3 °F 25.0 °F 84% 30.07 in 10.0 mi SE 4.6 mph - N/A   Scattered Clouds
1:55 AM 28.2 °F 23.1 °F 24.3 °F 85% 30.08 in 7.0 mi SE 4.6 mph - N/A   Clear
2:15 AM 27.9 °F 22.6 °F 24.3 °F 86% 30.08 in 7.0 mi SSE 4.6 mph - N/A   Scattered Clouds
2:35 AM 28.6 °F 23.5 °F 24.4 °F 84% 30.07 in 10.0 mi SSE 4.6 mph - N/A   Scattered Clouds
2:55 AM 30.0 °F 25.2 °F 25.5 °F 83% 30.07 in 10.0 mi SSE 4.6 mph - N/A   Scattered Clouds
3:15 AM 29.8 °F 23.9 °F 25.5 °F 84% 30.07 in 10.0 mi SSE 5.8 mph - N/A   Scattered Clouds
3:35 AM 29.1 °F 24.1 °F 24.8 °F 84% 30.06 in 10.0 mi SSE 4.6 mph - N/A   Clear
3:55 AM 27.9 °F 22.6 °F 24.1 °F 86% 30.05 in 7.0 mi SSE 4.6 mph - N/A   Scattered Clouds
4:15 AM 28.6 °F 22.4 °F 25.0 °F 86% 30.05 in 7.0 mi South 5.8 mph - N/A   Scattered Clouds
4:35 AM 30.6 °F 23.1 °F 25.7 °F 82% 30.05 in 10.0 mi South 8.1 mph - N/A   Scattered Clouds
4:55 AM 30.2 °F 22.6 °F 25.7 °F 83% 30.05 in 10.0 mi SSE 8.1 mph - N/A   Scattered Clouds
5:15 AM 30.2 °F 23.4 °F 25.7 °F 83% 30.05 in 7.0 mi SSE 6.9 mph - N/A   Mostly Cloudy
5:35 AM 30.0 °F 24.1 °F 25.5 °F 83% 30.05 in 7.0 mi SE 5.8 mph - N/A   Mostly Cloudy
5:55 AM 29.8 °F 23.0 °F 25.7 °F 85% 30.04 in 7.0 mi SSE 6.9 mph - N/A   Scattered Clouds
6:15 AM 29.7 °F 22.8 °F 25.7 °F 85% 30.04 in 7.0 mi SSE 6.9 mph - N/A   Scattered Clouds
6:35 AM 28.8 °F 22.6 °F 24.8 °F 85% 30.04 in 7.0 mi SE 5.8 mph - N/A   Scattered Clouds
6:55 AM 28.9 °F 21.9 °F 25.0 °F 85% 30.04 in 7.0 mi SE 6.9 mph - N/A   Scattered Clouds
7:15 AM 29.8 °F 22.2 °F 25.7 °F 85% 30.03 in 7.0 mi SE 8.1 mph - N/A   Clear
7:35 AM 29.3 °F 23.2 °F 25.3 °F 85% 30.05 in 7.0 mi SSE 5.8 mph - N/A   Clear
7:55 AM 30.2 °F 24.3 °F 26.2 °F 85% 30.05 in 7.0 mi SSE 5.8 mph - N/A   Clear
8:15 AM 32.0 °F 23.6 °F 27.5 °F 83% 30.05 in 7.0 mi South 10.4 mph - N/A   Scattered Clouds
8:35 AM 33.1 °F 24.4 °F 28.4 °F 83% 30.05 in 7.0 mi South 11.5 mph - N/A   Scattered Clouds
8:55 AM 34.7 °F 26.9 °F 29.3 °F 81% 30.04 in 7.0 mi South 10.4 mph - N/A   Scattered Clouds
9:15 AM 34.7 °F 26.9 °F 29.1 °F 80% 30.04 in 7.0 mi SSE 10.4 mph - N/A   Scattered Clouds
9:35 AM 35.4 °F 27.3 °F 30.0 °F 81% 30.03 in 7.0 mi SSE 11.5 mph - N/A   Scattered Clouds
9:55 AM 38.7 °F 31.4 °F 30.7 °F 73% 30.03 in 10.0 mi South 11.5 mph - N/A   Clear
10:15 AM 40.5 °F 33.6 °F 31.1 °F 69% 30.03 in 10.0 mi South 11.5 mph - N/A   Clear
10:35 AM 43.2 °F 35.9 °F 32.0 °F 65% 30.02 in 10.0 mi South 15.0 mph - N/A   Clear
10:55 AM 44.8 °F 37.7 °F 31.8 °F 60% 30.01 in 10.0 mi South 16.1 mph - N/A   Clear
11:15 AM 46.2 °F 39.5 °F 32.0 °F 58% 30.01 in 10.0 mi South 16.1 mph - N/A   Clear
12:15 PM 51.6 °F - 32.4 °F 48% 29.99 in 10.0 mi South 17.3 mph 24.2 mph N/A   Unknown
12:35 PM 53.2 °F - 33.3 °F 47% 29.97 in 10.0 mi South 16.1 mph 25.3 mph N/A   Clear
12:55 PM 54.7 °F - 33.6 °F 45% 29.96 in 10.0 mi South 20.7 mph 26.5 mph N/A   Clear
1:15 PM 55.8 °F - 33.1 °F 42% 29.95 in 10.0 mi South 20.7 mph 27.6 mph N/A   Clear
1:35 PM 56.5 °F - 32.0 °F 39% 29.95 in 10.0 mi South 23.0 mph 28.8 mph N/A   Clear
1:55 PM 58.1 °F - 30.4 °F 35% 29.94 in 10.0 mi SSW 24.2 mph 34.5 mph N/A   Clear
2:15 PM 59.4 °F - 31.5 °F 35% 29.93 in 10.0 mi South 21.9 mph 29.9 mph N/A   Clear
2:35 PM 59.2 °F - 30.2 °F 33% 29.93 in 10.0 mi South 24.2 mph 34.5 mph N/A   Clear
2:55 PM 60.8 °F - 29.8 °F 31% 29.92 in 10.0 mi South 24.2 mph 31.1 mph N/A   Clear
3:15 PM 61.7 °F - 29.3 °F 29% 29.91 in 10.0 mi South 25.3 mph 38.0 mph N/A   Clear
3:35 PM 62.1 °F - 29.1 °F 29% 29.90 in 10.0 mi South 25.3 mph 32.2 mph N/A   Clear
3:55 PM 61.9 °F - 27.9 °F 28% 29.89 in 10.0 mi South 24.2 mph 32.2 mph N/A   Clear
4:15 PM 62.8 °F - 29.1 °F 28% 29.88 in 10.0 mi South 25.3 mph 31.1 mph N/A   Clear
4:35 PM 63.7 °F - 28.6 °F 27% 29.87 in 10.0 mi South 19.6 mph 28.8 mph N/A   Clear
4:55 PM 64.4 °F - 28.4 °F 26% 29.86 in 10.0 mi South 19.6 mph 29.9 mph N/A   Clear
5:15 PM 64.6 °F - 27.3 °F 25% 29.86 in 10.0 mi SSW 17.3 mph 28.8 mph N/A   Clear
5:35 PM 64.4 °F - 26.6 °F 24% 29.86 in 10.0 mi South 21.9 mph 26.5 mph N/A   Clear
5:55 PM 64.2 °F - 26.4 °F 24% 29.85 in 10.0 mi SSW 18.4 mph 24.2 mph N/A   Clear
6:15 PM 63.7 °F - 27.1 °F 25% 29.85 in 10.0 mi South 19.6 mph 23.0 mph N/A   Clear
6:35 PM 62.4 °F - 27.5 °F 27% 29.86 in 10.0 mi South 18.4 mph - N/A   Clear
6:55 PM 61.7 °F - 28.2 °F 28% 29.86 in 10.0 mi South 16.1 mph - N/A   Clear
7:15 PM 60.4 °F - 28.2 °F 29% 29.86 in 10.0 mi South 16.1 mph 23.0 mph N/A   Clear
7:35 PM 58.5 °F - 28.8 °F 32% 29.86 in 10.0 mi South 12.7 mph - N/A   Clear
7:55 PM 56.3 °F - 29.1 °F 35% 29.86 in 10.0 mi South 11.5 mph - N/A   Clear
8:15 PM 54.0 °F - 29.3 °F 39% 29.86 in 10.0 mi South 9.2 mph - N/A   Clear
8:35 PM 52.7 °F - 29.3 °F 41% 29.86 in 10.0 mi South 9.2 mph - N/A   Clear
8:55 PM 52.7 °F - 29.1 °F 40% 29.86 in 10.0 mi South 10.4 mph - N/A   Clear
9:15 PM 52.5 °F - 28.8 °F 40% 29.87 in 10.0 mi South 12.7 mph - N/A   Clear
9:35 PM 52.3 °F - 28.8 °F 40% 29.88 in 10.0 mi South 13.8 mph - N/A   Clear
9:55 PM 50.9 °F - 29.1 °F 43% 29.88 in 10.0 mi South 9.2 mph - N/A   Scattered Clouds
10:15 PM 48.7 °F - 29.7 °F 48% 29.88 in 10.0 mi SSE 8.1 mph - N/A   Clear
10:35 PM 46.4 °F 42.4 °F 30.0 °F 53% 29.88 in 10.0 mi SSE 8.1 mph - N/A   Clear
10:55 PM 46.9 °F - 30.0 °F 52% 29.89 in 10.0 mi SE 6.9 mph - N/A   Clear
11:15 PM 46.0 °F 41.9 °F 31.5 °F 57% 29.89 in 10.0 mi SE 8.1 mph - N/A   Clear
11:35 PM 45.0 °F 41.2 °F 31.6 °F 60% 29.89 in 10.0 mi SE 6.9 mph - N/A   Clear
11:55 PM 41.7 °F 38.0 °F 31.1 °F 66% 29.89 in 10.0 mi SSE 5.8 mph - N/A   Clear